HAZ1170 ZLIC-ZUUU

Flight info

Callsign HAZ1170
Flight time 1h 28m
Altitude 38100
Route BELIP9N BELIP B215 IDUGI/K0837S1130 B330 MEXAD MEXAD4C
Aircraft E75L/M-SDE3GILORVW/S

Departure

Time 2026-05-04 05:58
Airport Yinchuan Hedong International Airport (ZLIC)

Arrival

Time 2026-05-04 07:26
Airport Chengdu Shuangliu International Airport (ZUUU)
Time Latitude Longitude Altitude Speed Heading
2026-05-04 05:39 38.31896 106.38383 3758 ft 0 kts 261°
2026-05-04 05:48 38.31897 106.38387 3758 ft 1 kts 253°
2026-05-04 05:48 38.31902 106.38405 3758 ft 2 kts 265°
2026-05-04 05:48 38.31903 106.38424 3758 ft 2 kts 260°
2026-05-04 05:48 38.31906 106.38443 3758 ft 2 kts 262°
2026-05-04 05:49 38.31908 106.38461 3758 ft 2 kts 261°
2026-05-04 05:49 38.31911 106.38480 3758 ft 1 kts 266°
2026-05-04 05:49 38.31906 106.38495 3758 ft 0 kts 322°
2026-05-04 05:49 38.31900 106.38499 3758 ft 1 kts 332°
2026-05-04 05:51 38.31906 106.38494 3758 ft 3 kts 329°
2026-05-04 05:51 38.31947 106.38467 3758 ft 10 kts 348°
2026-05-04 05:52 38.32028 106.38509 3758 ft 14 kts 30°
2026-05-04 05:52 38.32117 106.38573 3758 ft 14 kts 30°
2026-05-04 05:52 38.32212 106.38641 3758 ft 17 kts 28°
2026-05-04 05:52 38.32322 106.38718 3758 ft 18 kts 31°
2026-05-04 05:53 38.32434 106.38800 3758 ft 18 kts 28°
2026-05-04 05:54 38.32828 106.39497 3758 ft 21 kts 28°
2026-05-04 05:55 38.32960 106.39593 3758 ft 22 kts 31°
2026-05-04 05:55 38.33099 106.39687 3758 ft 22 kts 28°
2026-05-04 05:55 38.33234 106.39786 3758 ft 22 kts 30°
2026-05-04 05:55 38.33371 106.39885 3758 ft 22 kts 30°
2026-05-04 05:56 38.33512 106.39983 3758 ft 22 kts 29°
2026-05-04 05:56 38.33586 106.40086 3758 ft 9 kts 127°
2026-05-04 05:56 38.33555 106.40159 3758 ft 9 kts 118°
2026-05-04 05:56 38.33518 106.40224 3758 ft 5 kts 189°
2026-05-04 05:57 38.33463 106.40190 3758 ft 26 kts 209°
2026-05-04 05:57 38.33118 106.39945 3758 ft 84 kts 210°
2026-05-04 05:57 38.32461 106.39475 3759 ft 132 kts 210°
2026-05-04 05:57 38.31543 106.38819 3769 ft 168 kts 208°
2026-05-04 05:58 38.30528 106.38083 4211 ft 164 kts 209°
2026-05-04 05:58 38.29570 106.37242 4624 ft 173 kts 219°
2026-05-04 05:58 38.28674 106.36282 4984 ft 161 kts 218°
2026-05-04 05:58 38.27797 106.35370 5021 ft 163 kts 218°
2026-05-04 05:59 38.26887 106.34448 5023 ft 181 kts 217°
2026-05-04 05:59 38.25929 106.33468 5777 ft 170 kts 218°
2026-05-04 05:59 38.25008 106.32516 6220 ft 180 kts 218°
2026-05-04 05:59 38.23998 106.31462 6658 ft 191 kts 219°
2026-05-04 06:00 38.23023 106.30441 7330 ft 187 kts 211°
2026-05-04 06:00 38.21673 106.29995 7410 ft 218 kts 183°
2026-05-04 06:00 38.20111 106.29506 7591 ft 243 kts 202°
2026-05-04 06:00 38.18482 106.28593 7743 ft 270 kts 205°
2026-05-04 06:01 38.16737 106.27508 8121 ft 285 kts 207°
2026-05-04 06:01 38.14962 106.26349 8775 ft 288 kts 208°
2026-05-04 06:03 38.02127 106.17673 12753 ft 324 kts 210°
2026-05-04 06:03 38.00141 106.16328 13336 ft 327 kts 210°
2026-05-04 06:05 37.94684 106.00002 17391 ft 332 kts 275°
2026-05-04 06:05 37.95073 105.94169 18514 ft 336 kts 276°
2026-05-04 06:05 37.95270 105.91212 19015 ft 340 kts 275°
2026-05-04 06:06 37.95470 105.88191 19523 ft 344 kts 275°
2026-05-04 06:06 37.95669 105.85181 20032 ft 347 kts 275°
2026-05-04 06:06 37.95870 105.82132 20549 ft 350 kts 275°
2026-05-04 06:06 37.96072 105.79057 21082 ft 352 kts 275°
2026-05-04 06:07 37.96273 105.75974 21580 ft 355 kts 275°
2026-05-04 06:07 37.96476 105.72867 22077 ft 358 kts 275°
2026-05-04 06:07 37.96679 105.69729 22550 ft 361 kts 275°
2026-05-04 06:07 37.96886 105.66518 23020 ft 365 kts 275°
2026-05-04 06:08 37.97093 105.63306 23478 ft 368 kts 275°
2026-05-04 06:08 37.97300 105.60074 23963 ft 370 kts 276°
2026-05-04 06:08 37.97505 105.56849 24439 ft 372 kts 276°
2026-05-04 06:08 37.97714 105.53556 24902 ft 375 kts 276°
2026-05-04 06:09 37.97919 105.50301 25322 ft 377 kts 276°
2026-05-04 06:09 37.98127 105.46993 25749 ft 379 kts 276°
2026-05-04 06:11 37.91760 105.25514 28345 ft 408 kts 235°
2026-05-04 06:11 37.90023 105.22671 28692 ft 411 kts 235°
2026-05-04 06:13 37.77421 105.02113 31024 ft 426 kts 235°
2026-05-04 06:14 37.66491 104.84388 33357 ft 423 kts 235°
2026-05-04 06:14 37.64673 104.81448 33770 ft 422 kts 236°
2026-05-04 06:15 37.62864 104.78527 34148 ft 421 kts 236°
2026-05-04 06:15 37.61085 104.75656 34432 ft 420 kts 236°
2026-05-04 06:15 37.59279 104.72743 34689 ft 419 kts 236°
2026-05-04 06:15 37.57502 104.69881 34938 ft 419 kts 236°
2026-05-04 06:16 37.55716 104.67007 35185 ft 419 kts 236°
2026-05-04 06:16 37.53927 104.64130 35420 ft 419 kts 236°
2026-05-04 06:16 37.52133 104.61247 35652 ft 418 kts 236°
2026-05-04 06:16 37.50343 104.58373 35851 ft 418 kts 236°
2026-05-04 06:17 37.48544 104.55486 36065 ft 418 kts 236°
2026-05-04 06:17 37.46748 104.52609 36285 ft 418 kts 236°
2026-05-04 06:17 37.44968 104.49754 36490 ft 419 kts 237°
2026-05-04 06:17 37.43205 104.46823 36702 ft 418 kts 237°
2026-05-04 06:18 37.41467 104.43939 36898 ft 419 kts 237°
2026-05-04 06:18 37.39704 104.41019 37102 ft 419 kts 238°
2026-05-04 06:18 37.37957 104.38126 37285 ft 419 kts 237°
2026-05-04 06:20 37.23610 104.20081 38238 ft 446 kts 205°
2026-05-04 06:21 37.07789 104.20644 38283 ft 487 kts 160°
2026-05-04 06:22 37.01237 104.22756 38300 ft 487 kts 173°
2026-05-04 06:25 36.54626 104.32796 38256 ft 489 kts 174°
2026-05-04 06:26 36.47928 104.34113 38243 ft 485 kts 180°
2026-05-04 06:26 36.41185 104.34284 38262 ft 484 kts 183°
2026-05-04 06:27 36.24424 104.34561 38289 ft 484 kts 183°
2026-05-04 06:28 36.17654 104.34673 38302 ft 486 kts 183°
2026-05-04 06:28 36.10913 104.34787 38294 ft 485 kts 183°
2026-05-04 06:29 36.04157 104.34899 38318 ft 487 kts 183°
2026-05-04 06:29 35.97409 104.35012 38316 ft 487 kts 183°
2026-05-04 06:30 35.90660 104.35125 38309 ft 486 kts 184°
2026-05-04 06:30 35.83876 104.35237 38315 ft 488 kts 184°
2026-05-04 06:31 35.77094 104.35346 38316 ft 488 kts 184°
2026-05-04 06:31 35.70324 104.35455 38335 ft 489 kts 184°
2026-05-04 06:33 35.43173 104.35887 38383 ft 487 kts 184°
2026-05-04 06:34 35.36421 104.35995 38400 ft 488 kts 184°
2026-05-04 06:34 35.29613 104.36104 38401 ft 489 kts 184°
2026-05-04 06:36 35.02449 104.36536 38420 ft 489 kts 185°
2026-05-04 06:37 34.95653 104.36643 38422 ft 490 kts 185°
2026-05-04 06:37 34.88852 104.36750 38448 ft 491 kts 185°
2026-05-04 06:38 34.81992 104.36858 38438 ft 490 kts 185°
2026-05-04 06:40 34.54651 104.37289 38449 ft 491 kts 185°
2026-05-04 06:40 34.47936 104.37393 38462 ft 492 kts 185°
2026-05-04 06:41 34.41116 104.37499 38466 ft 491 kts 185°
2026-05-04 06:41 34.34280 104.37607 38449 ft 490 kts 185°
2026-05-04 06:42 34.27440 104.37713 38461 ft 494 kts 185°
2026-05-04 06:44 33.99989 104.38139 38471 ft 495 kts 185°
2026-05-04 06:44 33.93089 104.38246 38465 ft 494 kts 186°
2026-05-04 06:45 33.86189 104.38351 38465 ft 495 kts 186°
2026-05-04 06:45 33.79339 104.38457 38452 ft 496 kts 186°
2026-05-04 06:46 33.72467 104.38563 38471 ft 495 kts 185°
2026-05-04 06:46 33.65547 104.38686 38465 ft 498 kts 183°
2026-05-04 06:48 33.43071 104.51125 38464 ft 523 kts 152°
2026-05-04 06:48 33.39829 104.53073 38481 ft 516 kts 162°
2026-05-04 06:50 33.12170 104.56527 38468 ft 500 kts 183°
2026-05-04 06:51 33.05212 104.56969 38469 ft 501 kts 184°
2026-05-04 06:51 32.98259 104.57411 38450 ft 499 kts 183°
2026-05-04 06:52 32.91320 104.57851 38488 ft 500 kts 183°
2026-05-04 06:52 32.84359 104.58292 38462 ft 501 kts 184°
2026-05-04 06:53 32.77402 104.58731 38456 ft 499 kts 184°
2026-05-04 06:53 32.70511 104.59063 38456 ft 497 kts 185°
2026-05-04 06:54 32.63585 104.59371 38469 ft 499 kts 185°
2026-05-04 06:54 32.56644 104.59682 38451 ft 501 kts 185°
2026-05-04 06:55 32.49710 104.60001 38432 ft 496 kts 185°
2026-05-04 06:55 32.42806 104.60318 38391 ft 496 kts 185°
2026-05-04 06:57 32.15297 104.61804 38349 ft 495 kts 185°
2026-05-04 06:58 32.08387 104.62180 38345 ft 495 kts 185°
2026-05-04 06:58 32.01538 104.62554 38341 ft 495 kts 185°
2026-05-04 06:59 31.94715 104.62927 38343 ft 489 kts 185°
2026-05-04 06:59 31.87968 104.63291 38311 ft 486 kts 185°
2026-05-04 07:01 31.64248 104.64687 34440 ft 488 kts 184°
2026-05-04 07:01 31.60815 104.64899 33876 ft 493 kts 183°
2026-05-04 07:02 31.57413 104.65111 33324 ft 493 kts 184°
2026-05-04 07:02 31.53946 104.65326 32767 ft 494 kts 183°
2026-05-04 07:02 31.50557 104.65540 32246 ft 494 kts 183°
2026-05-04 07:02 31.47462 104.65734 31741 ft 490 kts 182°
2026-05-04 07:03 31.43893 104.65922 31150 ft 481 kts 186°
2026-05-04 07:03 31.40614 104.65616 30642 ft 468 kts 195°
2026-05-04 07:03 31.37493 104.64771 30098 ft 458 kts 203°
2026-05-04 07:03 31.34585 104.63423 29602 ft 447 kts 211°
2026-05-04 07:04 31.31749 104.61900 29082 ft 443 kts 210°
2026-05-04 07:04 31.28973 104.60408 28587 ft 440 kts 210°
2026-05-04 07:04 31.26222 104.58929 28104 ft 436 kts 211°
2026-05-04 07:04 31.23450 104.57440 27609 ft 433 kts 210°
2026-05-04 07:05 31.20741 104.55985 27136 ft 430 kts 210°
2026-05-04 07:05 31.18024 104.54528 26662 ft 426 kts 210°
2026-05-04 07:05 31.15348 104.53093 26203 ft 424 kts 210°
2026-05-04 07:05 31.12684 104.51666 25732 ft 421 kts 210°
2026-05-04 07:06 31.07395 104.48834 24798 ft 415 kts 210°
2026-05-04 07:06 31.04777 104.47450 24339 ft 412 kts 207°
2026-05-04 07:06 31.02163 104.46195 23880 ft 410 kts 207°
2026-05-04 07:07 30.99533 104.44933 23441 ft 407 kts 207°
2026-05-04 07:08 30.81572 104.36386 20332 ft 389 kts 206°
2026-05-04 07:09 30.79071 104.35216 19904 ft 385 kts 206°
2026-05-04 07:09 30.76610 104.34066 19490 ft 383 kts 205°
2026-05-04 07:09 30.74143 104.32914 19072 ft 380 kts 205°
2026-05-04 07:09 30.71694 104.31770 18657 ft 378 kts 205°
2026-05-04 07:10 30.69255 104.30626 18245 ft 375 kts 205°
2026-05-04 07:10 30.66897 104.29430 17822 ft 371 kts 214°
2026-05-04 07:12 30.70228 104.14777 14407 ft 343 kts
2026-05-04 07:12 30.72441 104.15542 14033 ft 332 kts 22°
2026-05-04 07:12 30.74524 104.16593 13633 ft 321 kts 21°
2026-05-04 07:12 30.76549 104.17575 13284 ft 309 kts 21°
2026-05-04 07:13 30.78501 104.18506 12952 ft 299 kts 20°
2026-05-04 07:13 30.80405 104.19408 12626 ft 291 kts 20°
2026-05-04 07:13 30.82269 104.20287 12304 ft 282 kts 21°
2026-05-04 07:14 30.89097 104.23509 11106 ft 246 kts 20°
2026-05-04 07:14 30.90690 104.24069 10849 ft 231 kts 355°
2026-05-04 07:15 30.92128 104.23482 10708 ft 214 kts 315°
2026-05-04 07:15 30.92984 104.22109 10347 ft 213 kts 297°
2026-05-04 07:15 30.93660 104.20571 10019 ft 211 kts 294°
2026-05-04 07:15 30.94266 104.19058 9796 ft 204 kts 292°
2026-05-04 07:16 30.94837 104.17546 9519 ft 202 kts 291°
2026-05-04 07:16 30.95387 104.16043 9283 ft 202 kts 291°
2026-05-04 07:16 30.95901 104.14530 9052 ft 202 kts 281°
2026-05-04 07:16 30.95672 104.12950 8846 ft 201 kts 236°
2026-05-04 07:17 30.94568 104.11965 8559 ft 203 kts 206°
2026-05-04 07:17 30.93304 104.11243 8343 ft 200 kts 207°
2026-05-04 07:17 30.92042 104.10594 8110 ft 200 kts 202°
2026-05-04 07:17 30.90734 104.09990 7862 ft 200 kts 202°
2026-05-04 07:18 30.89450 104.09395 7623 ft 198 kts 202°
2026-05-04 07:18 30.88165 104.08798 7378 ft 197 kts 201°
2026-05-04 07:18 30.86909 104.08213 7143 ft 196 kts 202°
2026-05-04 07:18 30.85641 104.07622 7007 ft 189 kts 202°
2026-05-04 07:19 30.84418 104.07051 6859 ft 190 kts 201°
2026-05-04 07:19 30.83241 104.06502 6592 ft 171 kts 201°
2026-05-04 07:19 30.82183 104.06009 6341 ft 158 kts 201°
2026-05-04 07:19 30.81173 104.05538 6139 ft 156 kts 201°
2026-05-04 07:20 30.80168 104.05070 5934 ft 149 kts 201°
2026-05-04 07:20 30.79245 104.04639 5717 ft 139 kts 200°
2026-05-04 07:20 30.78334 104.04215 5575 ft 148 kts 200°
2026-05-04 07:20 30.77337 104.03751 5418 ft 157 kts 200°
2026-05-04 07:22 30.70149 104.00406 3905 ft 156 kts 200°
2026-05-04 07:22 30.69157 103.99944 3680 ft 146 kts 200°
2026-05-04 07:23 30.68248 103.99522 3469 ft 135 kts 200°
2026-05-04 07:23 30.67383 103.99120 3306 ft 133 kts 200°
2026-05-04 07:23 30.66509 103.98714 3150 ft 136 kts 199°
2026-05-04 07:23 30.65673 103.98326 2988 ft 137 kts 200°
2026-05-04 07:24 30.64748 103.97897 2801 ft 138 kts 200°
2026-05-04 07:24 30.63886 103.97497 2629 ft 138 kts 200°
2026-05-04 07:24 30.62989 103.97080 2455 ft 137 kts 200°
2026-05-04 07:24 30.62103 103.96665 2299 ft 136 kts 200°
2026-05-04 07:25 30.61207 103.96255 2138 ft 136 kts 198°
2026-05-04 07:26 30.57330 103.94667 1688 ft 17 kts 127°
2026-05-04 07:27 30.57306 103.94751 1688 ft 9 kts 109°
2026-05-04 07:27 30.57284 103.94824 1688 ft 9 kts 110°
2026-05-04 07:27 30.57256 103.94900 1688 ft 10 kts 114°
2026-05-04 07:27 30.57232 103.94965 1688 ft 11 kts 113°
2026-05-04 07:28 30.57205 103.95046 1688 ft 11 kts 110°
2026-05-04 07:28 30.57203 103.95124 1688 ft 7 kts 86°
2026-05-04 07:28 30.57193 103.95167 1688 ft 3 kts 111°
2026-05-04 07:28 30.57186 103.95186 1688 ft 1 kts 111°